IGO0581 VOPB-VOMM

Flight info

Callsign IGO0581
Flight time 2h 0m
Altitude 36000
Route PPB P761 IDASO V3 AVMOR AVMOR2F
Aircraft A320/M-SDE3FGHIRWY/LB1

Departure

Time 2026-04-29 12:37
Airport Veer Savarkar International Airport / INS Utkrosh (VOPB)

Arrival

Time 2026-04-29 14:37
Airport Chennai International Airport (VOMM)
Time Latitude Longitude Altitude Speed Heading
2026-04-29 12:33 11.64863 92.73294 82 ft 0 kts 359°
2026-04-29 12:33 11.64874 92.73295 84 ft 5 kts
2026-04-29 12:33 11.64878 92.73302 83 ft 1 kts 70°
2026-04-29 12:34 11.64874 92.73368 81 ft 15 kts 69°
2026-04-29 12:34 11.64949 92.73445 85 ft 13 kts 62°
2026-04-29 12:34 11.64922 92.73506 83 ft 9 kts 130°
2026-04-29 12:34 11.64869 92.73523 84 ft 6 kts 197°
2026-04-29 12:35 11.64852 92.73512 83 ft 0 kts 214°
2026-04-29 12:36 11.64679 92.73385 88 ft 70 kts 217°
2026-04-29 12:36 11.64322 92.73116 90 ft 117 kts 216°
2026-04-29 12:36 11.63180 92.72267 173 ft 181 kts 214°
2026-04-29 12:37 11.62109 92.71440 624 ft 202 kts 217°
2026-04-29 12:37 11.61371 92.70831 931 ft 204 kts 218°
2026-04-29 12:37 11.60191 92.69887 1078 ft 229 kts 216°
2026-04-29 12:37 11.58829 92.68882 1382 ft 252 kts 215°
2026-04-29 12:38 11.57400 92.67782 2036 ft 262 kts 225°
2026-04-29 12:38 11.56456 92.66220 2761 ft 268 kts 253°
2026-04-29 12:38 11.56333 92.64327 3508 ft 272 kts 281°
2026-04-29 12:38 11.57097 92.62565 4268 ft 276 kts 309°
2026-04-29 12:39 11.58443 92.61165 5043 ft 278 kts 318°
2026-04-29 12:39 11.59894 92.59847 5796 ft 281 kts 319°
2026-04-29 12:39 11.61370 92.58526 6517 ft 284 kts 319°
2026-04-29 12:39 11.62866 92.57187 7202 ft 287 kts 319°
2026-04-29 12:40 11.64395 92.55822 7909 ft 290 kts 319°
2026-04-29 12:40 11.65901 92.54479 8594 ft 292 kts 319°
2026-04-29 12:40 11.67394 92.53057 9283 ft 295 kts 309°
2026-04-29 12:40 11.68395 92.51233 9912 ft 299 kts 287°
2026-04-29 12:41 11.68820 92.49110 10175 ft 317 kts 279°
2026-04-29 12:41 11.69173 92.46812 10319 ft 336 kts 278°
2026-04-29 12:41 11.69511 92.44422 10727 ft 344 kts 278°
2026-04-29 12:41 11.69848 92.41987 11259 ft 348 kts 278°
2026-04-29 12:42 11.70192 92.39531 11813 ft 351 kts 278°
2026-04-29 12:42 11.70546 92.37056 12368 ft 354 kts 278°
2026-04-29 12:42 11.70907 92.34562 12915 ft 357 kts 279°
2026-04-29 12:42 11.71272 92.32043 13470 ft 360 kts 279°
2026-04-29 12:43 11.71641 92.29504 13956 ft 363 kts 279°
2026-04-29 12:43 11.72016 92.26944 14440 ft 366 kts 279°
2026-04-29 12:43 11.72396 92.24369 14922 ft 368 kts 278°
2026-04-29 12:43 11.72776 92.21777 15393 ft 371 kts 278°
2026-04-29 12:44 11.73158 92.19163 15868 ft 374 kts 278°
2026-04-29 12:44 11.73541 92.16535 16344 ft 376 kts 278°
2026-04-29 12:44 11.73928 92.13880 16816 ft 379 kts 278°
2026-04-29 12:44 11.74315 92.11213 17283 ft 382 kts 278°
2026-04-29 12:45 11.74702 92.08526 17749 ft 385 kts 278°
2026-04-29 12:45 11.75094 92.05816 18213 ft 387 kts 278°
2026-04-29 12:45 11.75489 92.03091 18624 ft 390 kts 278°
2026-04-29 12:45 11.75887 92.00350 19057 ft 391 kts 278°
2026-04-29 12:46 11.76284 91.97599 19490 ft 393 kts 278°
2026-04-29 12:46 11.76684 91.94826 19934 ft 395 kts 278°
2026-04-29 12:46 11.77085 91.92044 20383 ft 397 kts 278°
2026-04-29 12:46 11.77486 91.89247 20826 ft 399 kts 278°
2026-04-29 12:47 11.77891 91.86441 21278 ft 401 kts 278°
2026-04-29 12:47 11.78299 91.83623 21713 ft 403 kts 278°
2026-04-29 12:47 11.78709 91.80784 22146 ft 405 kts 278°
2026-04-29 12:47 11.79121 91.77932 22566 ft 407 kts 278°
2026-04-29 12:48 11.79534 91.75064 22977 ft 410 kts 278°
2026-04-29 12:48 11.79947 91.72183 23380 ft 412 kts 278°
2026-04-29 12:48 11.80363 91.69285 23715 ft 414 kts 278°
2026-04-29 12:48 11.80779 91.66372 24050 ft 415 kts 278°
2026-04-29 12:49 11.81196 91.63449 24384 ft 417 kts 278°
2026-04-29 12:49 11.81615 91.60523 24717 ft 418 kts 278°
2026-04-29 12:49 11.82037 91.57583 25049 ft 419 kts 278°
2026-04-29 12:49 11.82462 91.54632 25377 ft 420 kts 278°
2026-04-29 12:50 11.82887 91.51679 25702 ft 421 kts 278°
2026-04-29 12:50 11.83313 91.48718 26019 ft 422 kts 278°
2026-04-29 12:50 11.83737 91.45748 26325 ft 423 kts 277°
2026-04-29 12:50 11.84160 91.42772 26633 ft 424 kts 277°
2026-04-29 12:51 11.84583 91.39788 26925 ft 426 kts 277°
2026-04-29 12:51 11.85005 91.36790 27215 ft 427 kts 277°
2026-04-29 12:51 11.85421 91.33791 27503 ft 428 kts 277°
2026-04-29 12:51 11.85837 91.30776 27785 ft 429 kts 277°
2026-04-29 12:52 11.86229 91.27756 28065 ft 430 kts 276°
2026-04-29 12:52 11.86559 91.24714 28355 ft 431 kts 275°
2026-04-29 12:52 11.86844 91.21665 28644 ft 432 kts 274°
2026-04-29 12:52 11.87109 91.18608 28930 ft 433 kts 274°
2026-04-29 12:53 11.87374 91.15538 29214 ft 435 kts 274°
2026-04-29 12:53 11.87652 91.12463 29506 ft 436 kts 274°
2026-04-29 12:53 11.87938 91.09380 29851 ft 436 kts 275°
2026-04-29 12:53 11.88235 91.06308 30218 ft 434 kts 275°
2026-04-29 12:54 11.88535 91.03248 30560 ft 432 kts 275°
2026-04-29 12:54 11.88831 91.00204 30903 ft 431 kts 275°
2026-04-29 12:54 11.89126 90.97161 31232 ft 430 kts 275°
2026-04-29 12:54 11.89419 90.94127 31582 ft 429 kts 275°
2026-04-29 12:55 11.89713 90.91100 31932 ft 428 kts 275°
2026-04-29 12:55 11.90006 90.88085 32281 ft 427 kts 275°
2026-04-29 12:55 11.90296 90.85070 32634 ft 426 kts 275°
2026-04-29 12:55 11.90583 90.82065 32990 ft 425 kts 275°
2026-04-29 12:56 11.90868 90.79075 33333 ft 424 kts 275°
2026-04-29 12:56 11.91153 90.76083 33665 ft 423 kts 275°
2026-04-29 12:56 11.91437 90.73096 33969 ft 422 kts 275°
2026-04-29 12:56 11.91720 90.70106 34239 ft 422 kts 275°
2026-04-29 12:57 11.92002 90.67130 34501 ft 421 kts 275°
2026-04-29 12:57 11.92283 90.64157 34757 ft 421 kts 275°
2026-04-29 12:57 11.92559 90.61226 35002 ft 420 kts 275°
2026-04-29 12:57 11.92842 90.58247 35249 ft 420 kts 275°
2026-04-29 12:58 11.93125 90.55282 35487 ft 420 kts 275°
2026-04-29 12:58 11.93405 90.52317 35726 ft 419 kts 275°
2026-04-29 12:58 11.93685 90.49356 35963 ft 419 kts 275°
2026-04-29 12:58 11.93967 90.46387 36195 ft 419 kts 275°
2026-04-29 12:59 11.94248 90.43427 36419 ft 418 kts 275°
2026-04-29 12:59 11.94528 90.40477 36644 ft 418 kts 275°
2026-04-29 12:59 11.94805 90.37520 36816 ft 418 kts 275°
2026-04-29 13:00 11.95358 90.31561 36859 ft 425 kts 275°
2026-04-29 13:00 11.95922 90.25542 36861 ft 426 kts 275°
2026-04-29 13:01 11.96494 90.19513 36858 ft 426 kts 275°
2026-04-29 13:01 11.97056 90.13480 36860 ft 427 kts 275°
2026-04-29 13:02 11.97612 90.07453 36862 ft 427 kts 275°
2026-04-29 13:02 11.98173 90.01415 36868 ft 427 kts 275°
2026-04-29 13:03 11.98726 89.95415 36869 ft 427 kts 275°
2026-04-29 13:03 11.99290 89.89370 36869 ft 427 kts 275°
2026-04-29 13:04 11.99849 89.83328 36871 ft 427 kts 275°
2026-04-29 13:04 12.00394 89.77287 36872 ft 427 kts 275°
2026-04-29 13:05 12.00952 89.71244 36877 ft 427 kts 275°
2026-04-29 13:05 12.01510 89.65200 36878 ft 427 kts 275°
2026-04-29 13:06 12.02058 89.59160 36877 ft 427 kts 275°
2026-04-29 13:06 12.02607 89.53124 36875 ft 427 kts 275°
2026-04-29 13:07 12.03154 89.47079 36869 ft 427 kts 275°
2026-04-29 13:07 12.03704 89.41044 36870 ft 427 kts 275°
2026-04-29 13:08 12.04256 89.35007 36870 ft 427 kts 275°
2026-04-29 13:08 12.04805 89.28967 36867 ft 427 kts 275°
2026-04-29 13:09 12.05340 89.22974 36867 ft 427 kts 274°
2026-04-29 13:09 12.05875 89.16934 36870 ft 427 kts 274°
2026-04-29 13:10 12.06414 89.10897 36868 ft 427 kts 275°
2026-04-29 13:10 12.06960 89.04864 36867 ft 426 kts 275°
2026-04-29 13:11 12.07500 88.98834 36866 ft 426 kts 274°
2026-04-29 13:11 12.08035 88.92795 36866 ft 426 kts 274°
2026-04-29 13:12 12.08568 88.86754 36868 ft 426 kts 274°
2026-04-29 13:12 12.09103 88.80723 36866 ft 426 kts 274°
2026-04-29 13:13 12.09632 88.74693 36866 ft 426 kts 274°
2026-04-29 13:13 12.10165 88.68654 36864 ft 426 kts 275°
2026-04-29 13:14 12.10808 88.62631 36866 ft 426 kts 276°
2026-04-29 13:14 12.11563 88.56623 36867 ft 426 kts 276°
2026-04-29 13:15 12.12303 88.50656 36870 ft 426 kts 276°
2026-04-29 13:15 12.13017 88.44648 36867 ft 426 kts 276°
2026-04-29 13:16 12.13715 88.38635 36870 ft 426 kts 276°
2026-04-29 13:16 12.14414 88.32620 36867 ft 426 kts 276°
2026-04-29 13:17 12.15111 88.26615 36869 ft 426 kts 276°
2026-04-29 13:17 12.15810 88.20609 36869 ft 425 kts 276°
2026-04-29 13:18 12.16513 88.14613 36869 ft 425 kts 276°
2026-04-29 13:18 12.17212 88.08606 36868 ft 425 kts 276°
2026-04-29 13:19 12.17902 88.02612 36872 ft 425 kts 276°
2026-04-29 13:19 12.18597 87.96615 36869 ft 425 kts 276°
2026-04-29 13:20 12.19290 87.90626 36870 ft 424 kts 276°
2026-04-29 13:20 12.19978 87.84635 36872 ft 424 kts 276°
2026-04-29 13:21 12.20666 87.78681 36870 ft 424 kts 276°
2026-04-29 13:21 12.21351 87.72701 36871 ft 424 kts 276°
2026-04-29 13:22 12.22040 87.66713 36869 ft 424 kts 276°
2026-04-29 13:22 12.22720 87.60727 36869 ft 424 kts 276°
2026-04-29 13:23 12.23406 87.54740 36870 ft 424 kts 276°
2026-04-29 13:23 12.24092 87.48758 36868 ft 424 kts 276°
2026-04-29 13:24 12.24766 87.42767 36868 ft 424 kts 276°
2026-04-29 13:24 12.25333 87.37791 36868 ft 424 kts 276°
2026-04-29 13:25 12.26018 87.31812 36868 ft 423 kts 276°
2026-04-29 13:25 12.27032 87.22842 36865 ft 423 kts 276°
2026-04-29 13:26 12.27703 87.16864 36865 ft 423 kts 276°
2026-04-29 13:26 12.28374 87.10888 36865 ft 423 kts 276°
2026-04-29 13:27 12.29041 87.04913 36865 ft 423 kts 275°
2026-04-29 13:27 12.29711 86.98932 36863 ft 423 kts 276°
2026-04-29 13:28 12.30381 86.92959 36862 ft 423 kts 275°
2026-04-29 13:28 12.31046 86.86988 36865 ft 423 kts 276°
2026-04-29 13:29 12.31721 86.81010 36865 ft 423 kts 275°
2026-04-29 13:29 12.32388 86.75034 36865 ft 423 kts 275°
2026-04-29 13:30 12.33049 86.69095 36867 ft 423 kts 275°
2026-04-29 13:30 12.33704 86.63113 36869 ft 423 kts 275°
2026-04-29 13:31 12.34361 86.57136 36867 ft 423 kts 275°
2026-04-29 13:31 12.35022 86.51156 36869 ft 423 kts 275°
2026-04-29 13:32 12.35684 86.45176 36873 ft 423 kts 275°
2026-04-29 13:32 12.36343 86.39193 36871 ft 423 kts 275°
2026-04-29 13:33 12.37003 86.33214 36872 ft 423 kts 275°
2026-04-29 13:33 12.37655 86.27244 36872 ft 423 kts 275°
2026-04-29 13:34 12.38309 86.21267 36872 ft 422 kts 275°
2026-04-29 13:34 12.38966 86.15297 36869 ft 422 kts 275°
2026-04-29 13:35 12.39607 86.09333 36867 ft 422 kts 275°
2026-04-29 13:35 12.40245 86.03367 36863 ft 422 kts 275°
2026-04-29 13:36 12.40896 85.97409 36865 ft 421 kts 275°
2026-04-29 13:36 12.41547 85.91449 36864 ft 421 kts 275°
2026-04-29 13:37 12.42182 85.85532 36864 ft 421 kts 275°
2026-04-29 13:37 12.42817 85.79575 36865 ft 421 kts 275°
2026-04-29 13:38 12.43455 85.73620 36866 ft 421 kts 275°
2026-04-29 13:38 12.44097 85.67671 36862 ft 421 kts 275°
2026-04-29 13:39 12.44732 85.61719 36861 ft 420 kts 275°
2026-04-29 13:39 12.45372 85.55769 36858 ft 420 kts 275°
2026-04-29 13:40 12.46007 85.49822 36858 ft 420 kts 275°
2026-04-29 13:40 12.46636 85.43875 36858 ft 421 kts 275°
2026-04-29 13:41 12.47267 85.37922 36855 ft 421 kts 275°
2026-04-29 13:41 12.47886 85.32008 36858 ft 421 kts 275°
2026-04-29 13:42 12.48519 85.26018 36858 ft 421 kts 275°
2026-04-29 13:42 12.49146 85.20111 36862 ft 420 kts 275°
2026-04-29 13:43 12.49773 85.14167 36855 ft 420 kts 275°
2026-04-29 13:43 12.50393 85.08211 36856 ft 420 kts 275°
2026-04-29 13:44 12.51020 85.02267 36856 ft 420 kts 275°
2026-04-29 13:44 12.51645 84.96321 36859 ft 420 kts 275°
2026-04-29 13:45 12.52267 84.90381 36859 ft 420 kts 275°
2026-04-29 13:45 12.52882 84.84440 36859 ft 420 kts 275°
2026-04-29 13:46 12.53494 84.78493 36860 ft 420 kts 275°
2026-04-29 13:46 12.54101 84.72558 36856 ft 419 kts 275°
2026-04-29 13:47 12.54716 84.66621 36854 ft 419 kts 275°
2026-04-29 13:47 12.55336 84.60687 36854 ft 419 kts 275°
2026-04-29 13:48 12.55945 84.54789 36852 ft 419 kts 275°
2026-04-29 13:48 12.56550 84.48858 36852 ft 419 kts 275°
2026-04-29 13:49 12.57160 84.42926 36849 ft 419 kts 275°
2026-04-29 13:49 12.57767 84.36995 36849 ft 419 kts 275°
2026-04-29 13:50 12.58374 84.31065 36849 ft 419 kts 275°
2026-04-29 13:50 12.58976 84.25131 36847 ft 419 kts 275°
2026-04-29 13:51 12.59578 84.19207 36201 ft 418 kts 275°
2026-04-29 13:51 12.59878 84.16255 35893 ft 415 kts 275°
2026-04-29 13:51 12.60177 84.13311 35819 ft 418 kts 275°
2026-04-29 13:52 12.60776 84.07360 35840 ft 421 kts 275°
2026-04-29 13:52 12.61380 84.01392 35838 ft 421 kts 275°
2026-04-29 13:53 12.61982 83.95427 35839 ft 421 kts 275°
2026-04-29 13:53 12.62576 83.89466 35837 ft 421 kts 275°
2026-04-29 13:54 12.63178 83.83496 35836 ft 421 kts 275°
2026-04-29 13:54 12.63785 83.77545 35834 ft 420 kts 275°
2026-04-29 13:55 12.64375 83.71602 35836 ft 420 kts 275°
2026-04-29 13:55 12.64957 83.65652 35837 ft 420 kts 275°
2026-04-29 13:56 12.65544 83.59709 35839 ft 420 kts 275°
2026-04-29 13:56 12.65841 83.53755 35836 ft 419 kts 266°
2026-04-29 13:57 12.65460 83.47801 35836 ft 419 kts 266°
2026-04-29 13:57 12.65146 83.42857 35836 ft 419 kts 266°
2026-04-29 13:58 12.64698 83.35935 35837 ft 419 kts 266°
2026-04-29 13:58 12.64317 83.29971 35839 ft 420 kts 266°
2026-04-29 13:59 12.63931 83.24010 35840 ft 420 kts 266°
2026-04-29 13:59 12.63550 83.18049 35840 ft 420 kts 266°
2026-04-29 14:00 12.63162 83.12085 35842 ft 420 kts 266°
2026-04-29 14:00 12.62770 83.06119 35845 ft 420 kts 266°
2026-04-29 14:01 12.62379 83.00146 35846 ft 420 kts 266°
2026-04-29 14:01 12.61986 82.94174 35844 ft 420 kts 266°
2026-04-29 14:02 12.61591 82.88201 35847 ft 421 kts 266°
2026-04-29 14:02 12.61197 82.82231 35843 ft 421 kts 266°
2026-04-29 14:03 12.60804 82.76255 35847 ft 421 kts 266°
2026-04-29 14:03 12.60414 82.70279 35841 ft 421 kts 266°
2026-04-29 14:04 12.60013 82.64303 35845 ft 421 kts 266°
2026-04-29 14:04 12.59614 82.58324 35850 ft 421 kts 266°
2026-04-29 14:05 12.59213 82.52347 35850 ft 421 kts 266°
2026-04-29 14:05 12.58803 82.46366 35850 ft 421 kts 266°
2026-04-29 14:06 12.58402 82.40417 35850 ft 421 kts 266°
2026-04-29 14:06 12.58005 82.34430 35849 ft 422 kts 266°
2026-04-29 14:07 12.57597 82.28446 35843 ft 422 kts 265°
2026-04-29 14:07 12.57176 82.22454 35847 ft 422 kts 265°
2026-04-29 14:08 12.56761 82.16470 35848 ft 422 kts 265°
2026-04-29 14:08 12.56361 82.10478 35847 ft 422 kts 265°
2026-04-29 14:09 12.55953 82.04485 35850 ft 422 kts 265°
2026-04-29 14:09 12.56269 81.98511 35846 ft 423 kts 281°
2026-04-29 14:10 12.57317 81.93622 35846 ft 423 kts 281°
2026-04-29 14:10 12.58567 81.87732 35845 ft 423 kts 281°
2026-04-29 14:11 12.59806 81.81840 35845 ft 424 kts 281°
2026-04-29 14:11 12.61046 81.75958 35487 ft 420 kts 281°
2026-04-29 14:12 12.61661 81.73040 35067 ft 417 kts 281°
2026-04-29 14:12 12.62467 81.69224 34529 ft 412 kts 281°
2026-04-29 14:12 12.62873 81.67290 34270 ft 410 kts 281°
2026-04-29 14:12 12.63470 81.64443 33874 ft 407 kts 281°
2026-04-29 14:13 12.64061 81.61624 33426 ft 404 kts 281°
2026-04-29 14:13 12.64647 81.58828 32971 ft 400 kts 281°
2026-04-29 14:13 12.65227 81.56048 32536 ft 397 kts 282°
2026-04-29 14:13 12.65803 81.53293 32101 ft 394 kts 282°
2026-04-29 14:14 12.66372 81.50591 31681 ft 392 kts 282°
2026-04-29 14:14 12.66949 81.47839 31266 ft 389 kts 282°
2026-04-29 14:14 12.67521 81.45144 30850 ft 387 kts 282°
2026-04-29 14:14 12.68089 81.42496 30469 ft 384 kts 283°
2026-04-29 14:15 12.68659 81.39832 30094 ft 382 kts 283°
2026-04-29 14:15 12.69222 81.37184 29691 ft 380 kts 283°
2026-04-29 14:15 12.69783 81.34514 29256 ft 377 kts 283°
2026-04-29 14:15 12.70324 81.31928 28842 ft 376 kts 282°
2026-04-29 14:16 12.70867 81.29318 28436 ft 374 kts 282°
2026-04-29 14:16 12.71408 81.26717 28044 ft 372 kts 282°
2026-04-29 14:16 12.71946 81.24132 27659 ft 371 kts 282°
2026-04-29 14:16 12.72482 81.21556 27275 ft 369 kts 282°
2026-04-29 14:17 12.73014 81.18995 26885 ft 368 kts 282°
2026-04-29 14:17 12.73545 81.16436 26499 ft 366 kts 282°
2026-04-29 14:17 12.74073 81.13887 26112 ft 365 kts 282°
2026-04-29 14:17 12.74599 81.11357 25729 ft 363 kts 282°
2026-04-29 14:18 12.75125 81.08835 25356 ft 361 kts 282°
2026-04-29 14:18 12.75647 81.06325 24976 ft 359 kts 282°
2026-04-29 14:18 12.76165 81.03824 24598 ft 358 kts 281°
2026-04-29 14:18 12.76679 81.01338 24226 ft 356 kts 281°
2026-04-29 14:19 12.77191 80.98866 23852 ft 354 kts 281°
2026-04-29 14:19 12.77703 80.96399 23478 ft 353 kts 281°
2026-04-29 14:19 12.78212 80.93949 23051 ft 351 kts 281°
2026-04-29 14:19 12.78721 80.91507 22631 ft 349 kts 281°
2026-04-29 14:20 12.79226 80.89084 22225 ft 347 kts 282°
2026-04-29 14:20 12.79727 80.86676 21824 ft 345 kts 282°
2026-04-29 14:20 12.80225 80.84279 21427 ft 343 kts 282°
2026-04-29 14:20 12.80914 80.81959 21081 ft 339 kts 293°
2026-04-29 14:21 12.81952 80.79803 20717 ft 337 kts 297°
2026-04-29 14:21 12.83018 80.77674 20336 ft 335 kts 297°
2026-04-29 14:21 12.84078 80.75555 19974 ft 333 kts 297°
2026-04-29 14:21 12.85131 80.73450 19611 ft 331 kts 298°
2026-04-29 14:22 12.86173 80.71360 19260 ft 329 kts 298°
2026-04-29 14:22 12.87211 80.69274 18910 ft 328 kts 298°
2026-04-29 14:22 12.88242 80.67198 18561 ft 326 kts 298°
2026-04-29 14:22 12.89259 80.65150 18228 ft 324 kts 298°
2026-04-29 14:23 12.90280 80.63095 17852 ft 323 kts 299°
2026-04-29 14:23 12.91300 80.61047 17448 ft 322 kts 299°
2026-04-29 14:23 12.92314 80.59010 17042 ft 321 kts 298°
2026-04-29 14:23 12.93370 80.56992 16607 ft 321 kts 306°
2026-04-29 14:24 12.94939 80.55410 16189 ft 317 kts 329°
2026-04-29 14:24 12.96988 80.54626 15776 ft 315 kts 353°
2026-04-29 14:24 12.99158 80.54774 15372 ft 315 kts 17°
2026-04-29 14:24 13.01072 80.55823 14983 ft 314 kts 41°
2026-04-29 14:25 13.02391 80.57589 14617 ft 314 kts 66°
2026-04-29 14:25 13.02879 80.59746 14268 ft 313 kts 90°
2026-04-29 14:25 13.02665 80.61963 13936 ft 312 kts 98°
2026-04-29 14:25 13.02332 80.64160 13611 ft 311 kts 99°
2026-04-29 14:26 13.01995 80.66334 13271 ft 308 kts 99°
2026-04-29 14:26 13.01369 80.68418 12934 ft 306 kts 119°
2026-04-29 14:26 12.99979 80.70047 12581 ft 306 kts 143°
2026-04-29 14:26 12.98041 80.70926 12224 ft 308 kts 168°
2026-04-29 14:27 12.95908 80.70898 11805 ft 309 kts 193°
2026-04-29 14:27 12.93974 80.69966 11320 ft 312 kts 218°
2026-04-29 14:27 12.92577 80.68277 10850 ft 313 kts 243°
2026-04-29 14:28 12.92307 80.63971 9925 ft 308 kts 293°
2026-04-29 14:28 12.93298 80.62047 9441 ft 304 kts 312°
2026-04-29 14:28 12.94906 80.60710 8952 ft 297 kts 334°
2026-04-29 14:28 12.96765 80.59808 8425 ft 294 kts 338°
2026-04-29 14:29 12.98634 80.58982 7893 ft 290 kts 337°
2026-04-29 14:29 13.00272 80.57828 7358 ft 286 kts 311°
2026-04-29 14:29 13.01230 80.56076 6861 ft 282 kts 285°
2026-04-29 14:29 13.01641 80.54124 6357 ft 278 kts 279°
2026-04-29 14:30 13.01967 80.52179 5835 ft 276 kts 279°
2026-04-29 14:30 13.02286 80.50254 5300 ft 273 kts 278°
2026-04-29 14:30 13.02610 80.48347 4781 ft 270 kts 278°
2026-04-29 14:30 13.02938 80.46464 4259 ft 267 kts 278°
2026-04-29 14:31 13.03275 80.44603 3729 ft 265 kts 278°
2026-04-29 14:31 13.03638 80.42755 3208 ft 263 kts 278°
2026-04-29 14:31 13.04008 80.40931 2683 ft 260 kts 278°
2026-04-29 14:31 13.04392 80.39143 2359 ft 250 kts 278°
2026-04-29 14:32 13.04778 80.37483 2300 ft 227 kts 279°
2026-04-29 14:32 13.05135 80.35962 2307 ft 213 kts 279°
2026-04-29 14:32 13.05387 80.34495 2305 ft 204 kts 265°
2026-04-29 14:32 13.05114 80.33129 1965 ft 193 kts 244°
2026-04-29 14:33 13.04631 80.31853 1822 ft 191 kts 243°
2026-04-29 14:33 13.04185 80.30667 1831 ft 167 kts 243°
2026-04-29 14:33 13.03780 80.29591 1807 ft 155 kts 243°
2026-04-29 14:33 13.03401 80.28582 1789 ft 150 kts 242°
2026-04-29 14:34 13.03024 80.27581 1742 ft 151 kts 243°
2026-04-29 14:34 13.02656 80.26598 1631 ft 145 kts 241°
2026-04-29 14:34 13.02297 80.25642 1448 ft 143 kts 241°
2026-04-29 14:34 13.01939 80.24690 1270 ft 142 kts 242°
2026-04-29 14:35 13.01590 80.23757 1097 ft 140 kts 242°
2026-04-29 14:35 13.01302 80.22989 950 ft 140 kts 243°
2026-04-29 14:35 13.00952 80.22057 796 ft 139 kts 242°
2026-04-29 14:35 13.00600 80.21119 636 ft 143 kts 243°
2026-04-29 14:36 13.00244 80.20172 458 ft 141 kts 244°
2026-04-29 14:36 12.99897 80.19246 274 ft 139 kts 242°
2026-04-29 14:36 12.99555 80.18324 98 ft 139 kts 243°
2026-04-29 14:36 12.99233 80.17477 53 ft 108 kts 248°
2026-04-29 14:37 12.99039 80.16943 54 ft 50 kts 250°
2026-04-29 14:37 12.98995 80.16835 53 ft 0 kts 238°
2026-04-29 14:37 12.98961 80.16790 55 ft 20 kts 226°
2026-04-29 14:37 12.98854 80.16695 55 ft 18 kts 217°
2026-04-29 14:38 12.98760 80.16625 53 ft 15 kts 215°
2026-04-29 14:38 12.98689 80.16555 51 ft 15 kts 243°
2026-04-29 14:38 12.98649 80.16451 55 ft 17 kts 247°
2026-04-29 14:38 12.98602 80.16330 50 ft 19 kts 248°
2026-04-29 14:39 12.98553 80.16196 53 ft 20 kts 249°
2026-04-29 14:39 12.98478 80.16142 52 ft 10 kts 159°
2026-04-29 14:39 12.98404 80.16167 55 ft 11 kts 168°
2026-04-29 14:39 12.98356 80.16119 53 ft 12 kts 249°
2026-04-29 14:40 12.98332 80.16056 52 ft 13 kts 248°
2026-04-29 14:40 12.98315 80.16012 55 ft 5 kts 248°
2026-04-29 14:40 12.98313 80.16008 54 ft 0 kts 248°
2026-04-29 14:41 12.98312 80.16004 54 ft 2 kts 248°
2026-04-29 14:41 12.98311 80.16002 50 ft 1 kts 248°
2026-04-29 14:41 12.98311 80.16001 50 ft 0 kts 248°
2026-04-29 14:42 12.98301 80.15981 55 ft 6 kts 240°
2026-04-29 14:42 12.98287 80.15967 55 ft 3 kts 212°
2026-04-29 14:43 12.98256 80.15978 50 ft 6 kts 162°
2026-04-29 14:43 12.98239 80.15984 55 ft 1 kts 160°
2026-04-29 14:43 12.98231 80.15986 55 ft 1 kts 160°
2026-04-29 14:43 12.98224 80.15989 54 ft 0 kts 160°